Flag for France Weather past 2 weeks in Lille, France

57 °F


Feels Like: 57 °F
Forecast: 55 / 67 °F
Wind: 5 mph from Southwest

Location: Lille Airport

Current Time: Oct 4, 2015 at 12:15:54 PM

Latest Report: Oct 4, 2015 at 11:30 AM

Visibility: 5 mi

Pressure: 30.01 "Hg

Humidity: 77%

Dew point: 50 °F

Location of LilleLocation

Historic Weather in Lille — Graph


Lille temperature yesterday

Maximum temperature yesterday: 68 °F (at 4:30 PM)
Minimum temperature yesterday: 43 °F (at 6:00 AM)
Average temperature yesterday: 54 °F

Past Weeks' High & Low Weather Summary

High68 °F (Sep 20, 3:30 PM)100% (Sep 20, 3:30 AM)30.60 "Hg (Sep 20, 3:30 AM)
Low41 °F (Oct 2, 8:00 AM)40% (Sep 20, 3:30 PM)29.47 "Hg (Sep 22, 3:30 PM)
Average55 °F76%30.19 "Hg
* Reported Sep 19 11:00 AM — Oct 4 11:00 AM, Lille, Weather by CustomWeather, © 2015

Note: Actual official high and low records may vary slightly from our data, if they occured in-between our weather recording intervals... More about our weather records


Lille weather history for previous 24 hours

Time TempWeatherWind HumidityBarometerVisibility
11:00 AM
Sun, Oct 4
55 °FFog.5 mph82%30.01 "Hg3 mi
10:30 AM54 °FFog.5 mph94%30.01 "Hg3 mi
10:00 AM50 °FFog.3 mph100%30.01 "Hg2 mi
9:30 AM48 °FFog.2 mph94%30.01 "Hg1 mi
9:00 AM45 °FLight fog.2 mph100%30.01 "Hg1 mi
8:30 AM43 °FFog.No wind93%30.01 "Hg0 mi
8:00 AM43 °FFog.1 mph100%30.01 "Hg0 mi
7:30 AM45 °FFog.No wind93%30.01 "Hg0 mi
7:00 AM43 °FFog.No wind100%30.01 "Hg1 mi
6:30 AM45 °FLight fog.2 mph93%29.98 "Hg1 mi
6:00 AM45 °FLight fog.2 mph100%29.98 "Hg2 mi
5:30 AM45 °FFog.No wind100%29.98 "Hg2 mi
5:00 AM46 °FLight fog.3 mph93%29.98 "Hg2 mi
4:30 AM46 °FLight fog.2 mph93%29.98 "Hg1 mi
4:00 AM46 °FLight fog.3 mph93%29.98 "Hg2 mi
3:30 AM46 °FFog.5 mph93%29.98 "Hg2 mi
3:00 AM46 °FFog.6 mph93%29.98 "Hg2 mi
2:30 AM46 °FFog.3 mph93%29.95 "Hg2 mi
2:00 AM46 °FLight fog.1 mph93%29.95 "Hg1 mi
1:30 AM48 °FLight fog.No wind94%29.95 "Hg1 mi
1:00 AM48 °FLight fog.No wind94%29.95 "Hg1 mi
11:30 PM
Sat, Oct 3
50 °FFog.1 mph94%29.95 "Hg2 mi
11:00 PM54 °FFog.2 mph88%29.95 "Hg2 mi
10:30 PM54 °FFog.3 mph88%29.95 "Hg3 mi
10:00 PM55 °FClear.3 mph82%29.95 "Hg4 mi
9:30 PM54 °FClear.6 mph77%29.95 "Hg6 mi
9:00 PM55 °FClear.No wind72%29.95 "Hg10 mi
8:30 PM55 °FClear.3 mph72%29.95 "Hg10 mi
8:00 PM57 °FSunny.3 mph67%29.92 "Hg10 mi
7:30 PM61 °FRefreshingly cool.3 mph59%29.92 "HgN/A
7:00 PM64 °FClear.3 mph52%29.92 "HgN/A
6:30 PM66 °FClear.No wind46%29.92 "HgN/A
6:00 PM68 °FClear.2 mph46%29.92 "HgN/A
5:30 PM68 °FSunny.3 mph46%29.92 "Hg10 mi
5:00 PM68 °FSunny.2 mph46%29.92 "Hg10 mi
4:30 PM68 °FPassing clouds.7 mph46%29.92 "HgN/A
4:00 PM66 °FSunny.3 mph49%29.92 "Hg10 mi
3:30 PM66 °FClear.6 mph49%29.92 "Hg5 mi
3:00 PM66 °FClear.3 mph46%29.92 "Hg4 mi
2:30 PM64 °FClear.2 mph52%29.92 "Hg5 mi
2:00 PM63 °FClear.2 mph56%29.95 "Hg4 mi
1:30 PM63 °FClear.5 mph56%29.95 "Hg4 mi
1:00 PM61 °FClear.3 mph59%29.95 "Hg4 mi
12:30 PM61 °FClear.3 mph63%29.95 "Hg4 mi
12:00 PM59 °FClear.3 mph68%29.98 "Hg4 mi
Weather by CustomWeather, © 2015

See weather overviewHow to use our weather pages